TITAN 3C TRANSTAGE DEB, 43516

Orbit data source: Space-Track

TITAN 3C TRANSTAGE DEB, 43516 is space debris in GEO originally from a launch on Sun, 09 Feb 1969 UTC launched from the Air Force Eastern Test Range (AFETR). Debris objects in space refer to the collection of defunct objects orbiting the Earth. Examples of debris include non-operational satellites, rocket bodies, and fragments generated from explosions, collisions, or faulty payload assembly.

Loading next visibility...
TITAN 3C TRANSTAGE DEB details
Identifier
43516, 1969-013U
Orbit
GEO
Last TLE update1 day ago
Origin
Flag of USUSAF SMC (US)
ManufacturerMartin Marietta
MissionSpacecraft
Bus & MotorUnknown
MassUnknown
Launch date (UTC)
1969-02-09 (56 years ago)
Launch vehicleUnknown
Launch site
Air Force Eastern Test Range (AFETR)
Object type
Payload
Rocket body
Debris
Shape & HBRUnknown
Radar Cross SectionRCS unknown

Expand to show TLE details & history

TLE from 1 day ago
0 TITAN 3C TRANSTAGE DEB
1 43516U 69013U   24360.07059852 -.00000051  00000-0  00000-0 0  9996
2 43516   0.5400   6.6286 0101248  75.5811 278.9499  0.96512316 23322
Epoch: 2024-12-25T01:41Z
Definitive object data (Epoch: 2024-12-25T01:41:39.712Z)
Latitude-0.06061°
Longitude-119.48489°
Altitude36,810.5 km
Speed3.04 km/s
True Right ascension00h 00m 00s
True Declination0° 03' 38"
Sunlit
Object was in daylight at TLE epoch
Visualization TLE readout
Latitude0.49975°
Longitude4.28237°
Altitude36,542.284 km
Speed3.059 km/s
Apparent Right ascension08h 00m 04s
Apparent Declination-5° 26' 27"
Sunlit
Object is in daylight
Visualization observer readout
Local Sidereal Time10:19:56
Azimuth223.74° SW
Elevation34.392°
Doppler factor1
Orbital elements
Apogee altitude37,313.556 km
Perigee altitude36,437.685 km
Semi-major axis43,253.757 km
Eccentricity0.0101248
Inclination0.54°
RAAN6.6286°
Arg. of periapsis75.5811°
True anomaly277.80163°
Mean anomaly278.9499°
Eccentric anomaly278.37598°
Mean motion0.24127 °/min
BSTARUnknown
Orbital period1492.09 mins
Loading historical data...
43516 neighbors
Authenticating...
Loading maneuver chart data...

TITAN 3C TRANSTAGE DEB Visibility forecast

Observer location: undefined°, undefined

Span
Click to sort rows by Start time (UTC) header in descending order
Start Az.
Max El. time (UTC)
Max El. Az.
Max El.
End time (UTC)
End Az.
1440 mins2024-12-26 10:58:39.725Z223.727° SW2024-12-26 10:58:39.725Z223.727° SW29.453°2024-12-27 10:58:39.725Z237.715° WSW
|